Погода в Кувакине

Россия / Чувашская Республика     54°58′59″N   46°24′25″E
темп.,
°C
ветер,
м/с
пор.,
м/с
влажн.,
%
обл.,
%
осадки,
мм/ч
давл.,
гПа
погр.,
м
15 апреля, чт
чт1500:00+11ююв23870 0.0 102126
03:00+10юв22870 0.0 102111
06:00+9ююв22860 0.0 102021
09:00+15ю235912 0.0 1020310
12:00+18ю223889 0.0 10191404
15:00+19юз11354 0.0 10181534
18:00+17с22511 0.0 101711
21:00+13ссв225618 0.0 101817
16 апреля, пт
пт1600:00+11всв226866 0.0 101811
03:00+9св398492 0.0 1019202
06:00+9всв5119676 0.0 1021354
09:00+11всв698597 0.0 1022524
12:00+12всв587693 0.0 1022610
15:00+15всв676182 0.0 1022885
18:00+12всв6107174 0.0 1023522
21:00+9всв511767 0.0 1024358
17 апреля, сб
сб1700:00+7всв38805 0.0 1025193
03:00+5св49786 0.0 1025216
06:00+5всв511768 0.0 1026350
09:00+10всв69595 0.0 1026644
12:00+12всв68499 0.0 1025986
15:00+13всв674217 0.0 10251199
18:00+11всв484468 0.0 1025320
21:00+9всв511515 0.0 1024433
18 апреля, вс
вс1800:00+5всв38655 0.0 1024191
03:00+4всв39695 0.0 1024225
06:00+3св310754 0.0 1025282
09:00+9всв575162 0.0 1024798
12:00+12в564099 0.0 10231386
15:00+12в4640100 0.0 10231782
18:00+11св6104857 0.0 1023560
21:00+6всв71471100 0.0 1025583
19 апреля, пн
пн1900:00+5всв61273100 0.0 1026661
03:00+3всв61252100 0.0 1027600
06:00+2всв61259100 0.0 1028596
09:00+4всв8115175 0.0 10291034
12:00+7всв810341 0.0 10291625
15:00+7в810315 0.0 10291747
18:00+5всв610371 0.0 10301379
21:00+3всв612400 0.0 1032507